Regional Weather Roundup
Issued by NWS Jackson, KY

Home | Current Version | Previous Version | Text Only | Print | Product List | Glossary On
Versions: 1 2 3 4 5 6 7 8 9 10 11 12 13 14 15 16 17 18 19 20 21 22 23 24 25 26 27
000
ASUS43 KJKL 070010
RWRJKL

EAST KENTUCKY HOURLY WEATHER ROUNDUP
NATIONAL WEATHER SERVICE JACKSON KY
800 PM EDT FRI MAY 06 2016

NOTE: "FAIR" INDICATES FEW OR NO CLOUDS BELOW 12,000 FEET WITH
NO SIGNIFICANT WEATHER AND/OR OBSTRUCTIONS TO VISIBILITY.

* THESE REPORTS ARE NOT UNDER NWS QUALITY CONTROL AND MAY NOT
  REPORT WEATHER SUCH AS PRECIPITATION AND FOG.

KYZ079-080-083-085-087-088-110-112-115-119-120-070100
...EASTERN KENTUCKY...

CITY           SKY/WX    TMP DP  RH WIND       PRES   REMARKS
JACKSON        CLEAR     63  35  35 NW7       29.88R
6HR MIN TEMP:  62; 6HR MAX TEMP:  68;

LONDON         PTCLDY    63  41  44 NW8       29.91R
6HR MIN TEMP:  63; 6HR MAX TEMP:  69;

SOMERSET*      CLEAR     63  36  36 NW7       29.93S
MONTICELLO*    CLEAR     63  45  51 NW6       29.94S
6HR MIN TEMP:  63; 6HR MAX TEMP:  68; 6HR PCP: TRACE;

WILLIAMSBURG*  CLEAR     59  41  51 NW5       29.92R
MIDDLESBORO*   CLEAR     63  42  45 NW7       29.91R
6HR MIN TEMP:  62; 6HR MAX TEMP:  68;

HARLAN APT*    MOCLDY    63  37  39 CALM      29.89S
HAZARD APT*    PTCLDY    64  36  34 NW7       29.88R
BLACK MTN*       N/A     48  41  76 W1          N/A
PIKE CO APT*     N/A     61  42  49 W5        29.86S
BIG SANDY APT* PTCLDY    64  41  43 CALM      29.86R
6HR MIN TEMP:  60; 6HR MAX TEMP:  67;

MOREHEAD APT*  CLEAR     66  39  37 N7        29.89S
$$

KYZ035-036-041-042-044-050-067-078-099-070100
...CENTRAL KENTUCKY...

CITY           SKY/WX    TMP DP  RH WIND       PRES   REMARKS
MT STERLING*   CLEAR     64  43  45 NW5       29.90S
FLEMING/MASON* CLEAR     65  41  41 NW7       29.88S
DANVILLE*      CLEAR     64  39  39 NW5       29.93S
RICHMOND*      PTCLDY    64  41  42 NW10G16   29.90S
LEXINGTON      CLEAR     65  39  38 NW8       29.90S
6HR MIN TEMP:  65; 6HR MAX TEMP:  70;

FRANKFORT      CLEAR     67  37  33 NW3       29.89F
6HR MIN TEMP:  67; 6HR MAX TEMP:  72;

LOUISVILLE     PTCLDY    69  39  33 NW7       29.91R
6HR MIN TEMP:  69; 6HR MAX TEMP:  73;

LEBANON*         N/A     64  45  48 W3        29.93R
BOWLING GREEN  CLEAR     69  43  38 NW6       29.95S
6HR MIN TEMP:  69; 6HR MAX TEMP:  72;

$$

KYZ091>093-OHZ055-061-077-WVZ005-015-034-035-042-070100
...SOUTHERN OHIO/WEST VIRGINIA...

CITY           SKY/WX    TMP DP  RH WIND       PRES   REMARKS
COVINGTON      PTCLDY    66  38  35 NW10      29.88S
COLUMBUS       PTCLDY    65  38  36 N13       29.85R
DAYTON         PTCLDY    64  40  41 N9        29.88S
WILMINGTON     CLEAR     65  41  41 N9        29.86S
HUNTINGTON       N/A     65  37  35 NW7       29.84R
CHARLESTON     MOCLDY    64  40  41 NW7       29.81R
PINEVILLE*       N/A     56  45  67 MISG      29.89R
BECKLEY        CLOUDY    57  38  48 NW14G21   29.82S
$$

VAZ002-007-008-TNZ017-027-036-066-071-070100
...SOUTHWEST VIRGINIA/EAST TENNESSEE...

CITY           SKY/WX    TMP DP  RH WIND       PRES   REMARKS
WISE*          MOCLDY    55  32  41 W6        29.90R
BRISTOL        CLOUDY    61  39  44 NW5       29.87R
MORRISTOWN*    CLOUDY    63  39  42 N5        29.89R
SEVIERVILLE*   MOCLDY    64  37  36 NW3       29.89R
KNOXVILLE      MOCLDY    66  41  40 NW6       29.90R
OAK RIDGE      PTCLDY    67  40  37 VRB5      29.92R
CROSSVILLE     CLEAR     62  38  40 NW10      29.96R
NASHVILLE      PTCLDY    69  40  34 NW12      29.96F
$$

...KEY TO REMARKS...
VSB - VISIBILITY IN MILES
WCI - WIND CHILL INDEX
HX  - HEAT INDEX

$$




USA.gov is the U.S. government's official web portal to all federal, state and local government web resources and services.